When you browse on this site, cookies collect data to enhance your experience and personalize the content and advertising you see.
Visit our Privacy Policy to learn more. By continuing to use the site, you agree to this use of cookies and data.
  • In United Kingdom
  • List of Countries
  • For 7 days
  • Water Temperature
  • Satellite Maps
  • Weather Map
  • Weather Widgets
  • user-avatar
    Login

    Hourly Weather Linz

    Today, 24 April, Wednesday

    Time Temperature Precipitation Wind Pressure Humidity
    00:00 +10°C° 0 mm 3 mps 726 mmHg 80%
    01:00 +9°C° 0 mm 3 mps 726 mmHg 83%
    02:00 +9°C° 0 mm 3 mps 726 mmHg 84%
    03:00 +9°C° 0 mm 3 mps 726 mmHg 85%
    04:00 +9°C° 0 mm 2 mps 726 mmHg 86%
    05:00 +10°C° 0 mm 2 mps 726 mmHg 83%
    06:00 +12°C° 0 mm 2 mps 727 mmHg 80%
    07:00 +13°C° 0 mm 3 mps 727 mmHg 74%
    08:00 +16°C° 0 mm 3 mps 727 mmHg 67%
    09:00 +19°C° 0 mm 3 mps 727 mmHg 61%
    10:00 +21°C° 0 mm 4 mps 727 mmHg 54%
    11:00 +22°C° 0 mm 4 mps 727 mmHg 50%
    12:00 +25°C° 0 mm 4 mps 727 mmHg 46%
    13:00 +26°C° 0 mm 4 mps 727 mmHg 42%
    14:00 +26°C° 0 mm 4 mps 727 mmHg 44%
    15:00 +26°C° 0 mm 4 mps 727 mmHg 45%
    16:00 +26°C° 0 mm 4 mps 727 mmHg 46%
    17:00 +22°C° 0 mm 4 mps 727 mmHg 52%
    18:00 +20°C° 0 mm 3 mps 726 mmHg 59%
    19:00 +18°C° 0 mm 3 mps 726 mmHg 65%
    20:00 +16°C° 0 mm 2 mps 727 mmHg 67%
    21:00 +15°C° 0 mm 2 mps 727 mmHg 70%
    22:00 +14°C° 0 mm 1 mps 728 mmHg 73%
    23:00 +13°C° 0 mm 1 mps 728 mmHg 74%

    Tomorrow, 25 April, Thursday

    Time Temperature Precipitation Wind Pressure Humidity
    00:00 +13°C° 0 mm 1 mps 729 mmHg 75%
    01:00 +12°C° 0 mm 1 mps 730 mmHg 76%
    02:00 +12°C° 0 mm 1 mps 730 mmHg 79%
    03:00 +11°C° 0 mm 1 mps 731 mmHg 81%
    04:00 +10°C° 0 mm 1 mps 731 mmHg 84%
    05:00 +11°C° 0 mm 1 mps 731 mmHg 80%
    06:00 +12°C° 0 mm 1 mps 731 mmHg 77%
    07:00 +12°C° 0 mm 0 mps 731 mmHg 73%
    08:00 +16°C° 0 mm 1 mps 731 mmHg 67%
    09:00 +18°C° 0 mm 2 mps 731 mmHg 61%
    10:00 +20°C° 0 mm 2 mps 731 mmHg 54%
    11:00 +21°C° 0 mm 3 mps 731 mmHg 51%
    12:00 +22°C° 0 mm 3 mps 731 mmHg 48%
    13:00 +24°C° 0 mm 3 mps 730 mmHg 45%
    14:00 +25°C° 0 mm 3 mps 730 mmHg 45%
    15:00 +25°C° 0 mm 4 mps 730 mmHg 46%
    16:00 +26°C° 0 mm 4 mps 729 mmHg 46%
    17:00 +24°C° 0 mm 3 mps 729 mmHg 53%
    18:00 +20°C° 0 mm 3 mps 729 mmHg 60%
    19:00 +18°C° 0 mm 2 mps 729 mmHg 67%
    20:00 +17°C° 0 mm 2 mps 729 mmHg 69%
    21:00 +15°C° 0 mm 2 mps 729 mmHg 70%
    22:00 +14°C° 0 mm 1 mps 729 mmHg 72%
    23:00 +13°C° 0 mm 1 mps 729 mmHg 72%

    Day after tomorrow, 26 April, Friday

    Time Temperature Precipitation Wind Pressure Humidity
    00:00 +13°C° 0 mm 1 mps 729 mmHg 73%
    01:00 +12°C° 0 mm 1 mps 729 mmHg 73%
    02:00 +12°C° 0 mm 1 mps 729 mmHg 75%
    03:00 +11°C° 0 mm 1 mps 729 mmHg 77%
    04:00 +10°C° 0 mm 0 mps 729 mmHg 78%
    05:00 +11°C° 0 mm 0 mps 729 mmHg 75%
    06:00 +12°C° 0 mm 0 mps 729 mmHg 72%
    07:00 +14°C° 0 mm 0 mps 729 mmHg 69%
    08:00 +16°C° 0 mm 0 mps 729 mmHg 64%
    09:00 +18°C° 0 mm 0 mps 729 mmHg 58%
    10:00 +22°C° 0 mm 1 mps 728 mmHg 52%
    11:00 +23°C° 0 mm 1 mps 728 mmHg 50%
    12:00 +24°C° 0 mm 2 mps 728 mmHg 47%
    13:00 +25°C° 0 mm 2 mps 728 mmHg 45%
    14:00 +21°C° 0.1 mm 5 mps 728 mmHg 57%
    15:00 +16°C° 0.1 mm 8 mps 728 mmHg 70%
    16:00 +11°C° 0.1 mm 10 mps 728 mmHg 82%
    17:00 +10°C° 0.3 mm 9 mps 729 mmHg 83%
    18:00 +7°C° 0.3 mm 8 mps 730 mmHg 84%
    19:00 +6°C° 0.3 mm 7 mps 731 mmHg 86%
    20:00 +7°C° 0.2 mm 6 mps 731 mmHg 86%
    21:00 +7°C° 0.2 mm 6 mps 732 mmHg 87%
    22:00 +7°C° 0.2 mm 5 mps 733 mmHg 88%
    23:00 +7°C° 0.1 mm 5 mps 733 mmHg 87%

    27 April, Saturday

    Time Temperature Precipitation Wind Pressure Humidity
    00:00 +7°C° 0.1 mm 5 mps 734 mmHg 87%
    01:00 +7°C° 0.1 mm 4 mps 734 mmHg 87%
    02:00 +7°C° 0.1 mm 4 mps 734 mmHg 87%
    03:00 +6°C° 0.1 mm 4 mps 734 mmHg 88%
    04:00 +6°C° 0.1 mm 4 mps 734 mmHg 88%
    05:00 +7°C° 0.1 mm 4 mps 734 mmHg 86%
    06:00 +7°C° 0.1 mm 4 mps 734 mmHg 85%
    07:00 +8°C° 0.1 mm 3 mps 734 mmHg 83%
    08:00 +8°C° 0 mm 4 mps 734 mmHg 76%
    09:00 +11°C° 0 mm 4 mps 734 mmHg 69%
    10:00 +12°C° 0 mm 4 mps 733 mmHg 62%
    11:00 +13°C° 0.1 mm 4 mps 733 mmHg 59%
    12:00 +14°C° 0.1 mm 4 mps 732 mmHg 55%
    13:00 +15°C° 0.1 mm 4 mps 732 mmHg 52%
    14:00 +15°C° 0.1 mm 5 mps 731 mmHg 55%
    15:00 +15°C° 0.1 mm 5 mps 731 mmHg 57%
    16:00 +15°C° 0.1 mm 6 mps 731 mmHg 60%
    17:00 +13°C° 0.1 mm 5 mps 731 mmHg 65%
    18:00 +12°C° 0.1 mm 4 mps 731 mmHg 71%
    19:00 +10°C° 0.1 mm 3 mps 732 mmHg 76%
    20:00 +10°C° 0 mm 3 mps 732 mmHg 80%
    21:00 +9°C° 0 mm 3 mps 733 mmHg 83%
    22:00 +8°C° 0 mm 2 mps 733 mmHg 87%
    23:00 +8°C° 0 mm 3 mps 733 mmHg 88%

    28 April, Sunday

    Time Temperature Precipitation Wind Pressure Humidity
    00:00 +7°C° 0 mm 3 mps 733 mmHg 89%
    01:00 +7°C° 0 mm 3 mps 733 mmHg 91%
    02:00 +7°C° 0 mm 2 mps 733 mmHg 91%
    03:00 +7°C° 0 mm 1 mps 733 mmHg 92%
    04:00 +7°C° 0 mm 1 mps 733 mmHg 93%
    05:00 +8°C° 0 mm 1 mps 734 mmHg 89%
    06:00 +8°C° 0 mm 1 mps 734 mmHg 86%
    07:00 +9°C° 0 mm 1 mps 734 mmHg 82%
    08:00 +9°C° 0 mm 2 mps 734 mmHg 77%
    09:00 +10°C° 0 mm 3 mps 734 mmHg 72%
    10:00 +11°C° 0 mm 4 mps 734 mmHg 67%
    11:00 +12°C° 0 mm 4 mps 734 mmHg 63%
    12:00 +13°C° 0 mm 3 mps 734 mmHg 58%
    13:00 +14°C° 0 mm 3 mps 734 mmHg 53%
    14:00 +14°C° 0.1 mm 3 mps 734 mmHg 54%
    15:00 +14°C° 0.1 mm 3 mps 733 mmHg 54%
    16:00 +14°C° 0.1 mm 3 mps 733 mmHg 54%
    17:00 +13°C° 0.1 mm 3 mps 733 mmHg 62%
    18:00 +12°C° 0.1 mm 3 mps 734 mmHg 69%
    19:00 +10°C° 0.1 mm 2 mps 734 mmHg 77%
    20:00 +9°C° 0.1 mm 2 mps 734 mmHg 81%
    21:00 +8°C° 0.1 mm 2 mps 735 mmHg 85%
    22:00 +8°C° 0.1 mm 2 mps 735 mmHg 89%
    23:00 +7°C° 0.1 mm 2 mps 735 mmHg 90%

    29 April, Monday

    Time Temperature Precipitation Wind Pressure Humidity
    00:00 +7°C° 0.1 mm 2 mps 735 mmHg 90%
    01:00 +7°C° 0.1 mm 2 mps 735 mmHg 91%
    02:00 +7°C° 0 mm 2 mps 735 mmHg 92%
    03:00 +6°C° 0 mm 2 mps 735 mmHg 94%
    04:00 +6°C° 0 mm 2 mps 735 mmHg 95%
    05:00 +5°C° 0 mm 3 mps 735 mmHg 93%
    06:00 +7°C° 0 mm 3 mps 735 mmHg 90%
    07:00 +7°C° 0 mm 3 mps 735 mmHg 88%
    08:00 +9°C° 0 mm 3 mps 735 mmHg 83%
    09:00 +11°C° 0 mm 4 mps 735 mmHg 77%
    10:00 +12°C° 0 mm 4 mps 735 mmHg 72%
    11:00 +12°C° 0.2 mm 4 mps 734 mmHg 72%
    12:00 +12°C° 0.2 mm 4 mps 734 mmHg 72%
    13:00 +13°C° 0.2 mm 3 mps 733 mmHg 72%
    14:00 +12°C° 0.5 mm 3 mps 733 mmHg 75%
    15:00 +13°C° 0.5 mm 2 mps 733 mmHg 79%
    16:00 +13°C° 0.5 mm 2 mps 733 mmHg 83%
    17:00 +12°C° 0.6 mm 2 mps 733 mmHg 86%
    18:00 +10°C° 0.6 mm 2 mps 733 mmHg 89%
    19:00 +10°C° 0.6 mm 2 mps 733 mmHg 92%
    20:00 +9°C° 0.2 mm 2 mps 733 mmHg 93%
    21:00 +9°C° 0.2 mm 3 mps 733 mmHg 93%
    22:00 +9°C° 0.2 mm 3 mps 733 mmHg 94%
    23:00 +9°C° 0.3 mm 3 mps 733 mmHg 94%
    Show more